Regional Weather Roundup
Issued by NWS Kansas City/Pleasant Hill, MO

Home | Current Version | Previous Version | Graphics & Text | Print | Product List | Glossary Off
Versions: 1 2 3 4 5 6 7 8 9 10 11 12 13 14 15 16 17 18 19 20 21 22 23 24 25 26 27

000
ASUS43 KEAX 271010
RWREAX

WEATHER ROUNDUP FOR EASTERN KANSAS AND NORTHWEST MISSOURI
NATIONAL WEATHER SERVICE KANSAS CITY/PLEASANT HILL MO
500 AM CDT TUE SEP 27 2016

KSZ040-057-103>105-MOZ028-029-037-043-271100-
...KANSAS CITY METROPOLITAN AREA...

CITY           SKY/WX    TMP DP  RH WIND       PRES   REMARKS
K.C. INTL      CLEAR     52  45  77 SW7       30.06S
K.C. DOWNTOWN  CLEAR     58  47  66 SW7       30.06S
LEES SUMMIT    CLEAR     56  47  71 SW8       30.07S
OLATHE - IXD   CLEAR     53  47  79 SW6       30.09S
OLATHE - OJC   CLEAR     54  45  71 SW6       30.08S
LAWRENCE       CLEAR     47  47 100 NW3       30.08S

$$

MOZ001>008-011>017-020>025-030>033-038>040-044>046-053-054-271100-
...NORTHERN AND CENTRAL MISSOURI...

CITY           SKY/WX    TMP DP  RH WIND       PRES   REMARKS
ST. JOSEPH     CLEAR     51  48  89 S5        30.05F
MOSBY          SUNNY     46  46 100 CALM      30.06S
WHITEMAN AFB   CLEAR     55  45  68 SW7       30.05F
CLINTON        CLEAR     54  45  71 SW8       30.08F
SEDALIA        CLEAR     55  45  68 SW10      30.07S
WARSAW         NOT AVBL
CHILLICOTHE      N/A     50  47  89 CALM      30.04S
KIRKSVILLE     CLEAR     51  45  79 W6        30.01F

$$

MOZ041-047>049-056>058-063>065-088>090-097-271100-
...EASTERN AND SOUTHERN MISSOURI...

CITY           SKY/WX    TMP DP  RH WIND       PRES   REMARKS
ST. LOUIS INTL CLEAR     57  44  62 W6        30.03F
SPIRIT OF STL  CLEAR     50  47  89 W5        30.03F
COLUMBIA       CLEAR     55  44  66 SW8       30.04F
JEFFERSON CITY CLEAR     52  47  83 CALM      30.05F
ROLLA          CLEAR     49  45  86 SW7       30.06F
OSAGE BEACH    CLEAR     48  46  93 CALM      30.09F
SPRINGFIELD    CLEAR     50  43  77 CALM      30.10F
BRANSON        CLEAR     50  46  87 SW6       30.13S
JOPLIN         CLEAR     49  45  86 CALM      30.12S FOG
WEST PLAINS    CLEAR     49  42  77 CALM      30.11F

$$

IAZ060-094-KSZ022-034>040-054-083-096-NEZ052-066-093-271100-
...KANSAS...SOUTHEAST NEBRASKA AND IOWA...

CITY           SKY/WX    TMP DP  RH WIND       PRES   REMARKS
TOPEKA         CLEAR     51  47  86 CALM      30.08S
MANHATTAN      CLEAR     51  48  89 SW6       30.09S
EMPORIA        CLEAR     51  46  83 S5        30.09F
CHANUTE        CLEAR     52  47  83 SW8       30.11S
WICHITA        CLEAR     54  46  74 SW6       30.12S
OMAHA          CLEAR     55  46  71 CALM      30.04S
LINCOLN        CLEAR     47  44  90 N3        30.07F
FALLS CITY     CLEAR     51  46  83 CALM      30.03F
LAMONI         CLEAR     51  45  79 W8        30.01S HAZE
DES MOINES     CLEAR     51  44  77 W5        29.99S

$$





USA.gov is the U.S. government's official web portal to all federal, state and local government web resources and services.